Lanseria, South Africa

8:29 AM SAST on August 30, 2016 (GMT +0200)
Lanseria

Weather History for FALA - August, 2013

Change the Weather History Date:

Saturday, August 17, 2013

  Actual Average Record
Temperature  
Mean Temperature 58 °F -  
Max Temperature 77 °F - - ()
Min Temperature 39 °F - - ()
Degree Days  
Heating Degree Days 7    
Growing Degree Days 8 (Base 50)    
Moisture  
Dew Point 21 °F    
Average Humidity 27    
Maximum Humidity 61    
Minimum Humidity 9    
Precipitation  
Precipitation 0.00 in - - ()
Sea Level Pressure  
Sea Level Pressure 30.13 in    
Wind  
Wind Speed 4 mph ()    
Max Wind Speed 18 mph    
Max Gust Speed -    
T = Trace of Precipitation, MM = Missing Value Source: Averaged Metar Reports

Daily Weather History Graph

Daily Weather History Graph

Search for Another Location

Airport or City:

Trip Planner

Search our weather history database for the weather conditions in past years. The results will help you decide how hot, cold, wet, or windy it might be!

Date:

Astronomy

Aug. 17, 2013 Rise Set
Actual Time 6:35 AM SAST 5:49 PM SAST
Civil Twilight 6:11 AM SAST 6:13 PM SAST
Nautical Twilight 5:44 AM SAST 6:40 PM SAST
Astronomical Twilight 5:17 AM SAST 7:07 PM SAST
Moon 2:08 PM SAST (8/17) 2:59 AM SAST (8/17)
Length of Visible Light 12h 01m
Length of Day
11h 14m
Waxing Gibbous, 82% of the Moon is Illuminated
Aug 17
Waxing Gibbous
Aug 21
Full
Aug 28
Last Quarter
Sep 5
New
Sep 12
First Quarter

Hourly Weather History & Observations

Time (SAST) Temp. Dew Point Humidity Pressure Visibility Wind Dir Wind Speed Gust Speed Precip Events Conditions
5:00 AM 42.8 °F 24.8 °F 49% 30.18 in - Calm Calm - N/A   Clear
6:00 AM 39.2 °F 26.6 °F 61% 30.18 in - Calm Calm - N/A   Clear
7:00 AM 39.2 °F 26.6 °F 61% 30.18 in - Calm Calm - N/A   Clear
7:40 AM 42.8 °F 26.6 °F 53% 30.18 in - Calm Calm - N/A   Clear
8:00 AM 44.6 °F 28.4 °F 53% 30.18 in - Calm Calm - N/A   Clear
8:15 AM 50.0 °F 28.4 °F 43% 30.18 in - Calm Calm - N/A   Clear
8:34 AM 53.6 °F 26.6 °F 35% 30.21 in - Calm Calm - N/A   Clear
9:00 AM 55.4 °F 26.6 °F 33% 30.21 in - Variable 2.3 mph - N/A   Clear
9:24 AM 60.8 °F 26.6 °F 27% 30.18 in - Variable 2.3 mph - N/A   Clear
10:00 AM 64.4 °F 23.0 °F 21% 30.18 in - North 5.8 mph - N/A   Clear
10:39 AM 68.0 °F 23.0 °F 18% 30.18 in - NNE 8.1 mph - N/A   Clear
11:00 AM 69.8 °F 19.4 °F 15% 30.18 in - NW 9.2 mph - N/A   Clear
12:00 PM 73.4 °F 17.6 °F 12% 30.12 in - WNW 15.0 mph - N/A   Clear
1:00 PM 75.2 °F 19.4 °F 12% 30.09 in - NW 13.8 mph - N/A   Clear
2:00 PM 77.0 °F 19.4 °F 12% 30.06 in - WNW 15.0 mph - N/A   Clear
3:00 PM 77.0 °F 15.8 °F 10% 30.04 in - WNW 17.3 mph - N/A   Clear
4:00 PM 77.0 °F 14.0 °F 9% 30.04 in - WNW 17.3 mph - N/A   Clear
5:00 PM 75.2 °F 15.8 °F 11% 30.04 in - NW 18.4 mph - N/A   Clear
6:00 PM 69.8 °F 15.8 °F 13% 30.04 in - NW 10.4 mph - N/A   Clear
7:00 PM 66.2 °F 15.8 °F 14% 30.06 in - WSW 6.9 mph - N/A   Clear
8:00 PM 62.6 °F 14.0 °F 15% 30.09 in - SSW 8.1 mph - N/A   Clear
9:00 PM 60.8 °F 12.2 °F 15% 30.09 in - SW 8.1 mph - N/A   Clear
10:00 PM 55.4 °F 17.6 °F 23% 30.09 in - Calm Calm - N/A   Clear